sat.trackr.live / text

‹ back to catalog

SHIJIAN-21 (SJ-21)

NORAD 49330 · 2021-094A

PAYLOAD ACTIVE UNKNOWN

§ Identity

Operator
Country
PRC
Launch date
2021-10-24
Launch site
XICLF
Launch vehicle
Mass (kg)
RCS (m²)

Purposes: comms

External: N2YO · Heavens-Above · Gunter

§ Orbital elements

Epoch: 2026-09-19T22:45:02.644128Z

Period
1,436.21 min
Inclination
5.3322°
Eccentricity
0.0053651
Mean motion
1.00263900 rev/d
Perigee alt
35,562.6 km
Apogee alt
36,015.0 km
Semi-major
42,166.9 km
B*
0.0000e+0
RAAN
60.5344°
Arg perigee
171.5345°
Mean anomaly
235.8127°
Rev number
631

§ Raw data

SHIJIAN-21 (SJ-21)1 49330U 21094A   26262.94794727 -.00000351  00000+0  00000+0 0  99902 49330   5.3322  60.5344 0053651 171.5345 235.8127  1.00263900  6313

JSON: /api/v1/satellites/49330 · /tle

For live sub-satellite position, see the globe view (requires WebGL).

§ Visibility from observer

Set your observer location to see the next 7 days of passes ≥ 10°. The values pass through the URL so the page stays shareable.

No JS? Fill the form by hand. The geolocation button needs JavaScript.